• Join FlightAware (Why Join?)
  • Login
  • US Flag 
01:09AM EDT


 

Airport Tracker/Info


-or-


 

Live Flight TrackerFlight Track Log ✈ SWA534 ✈ 23-Aug-2013 ✈ KOAK - KPDX

Flight Track Log - Related Links

Times and Time Zones

All times are in EDT time to prevent confusion due to time zone crossing. See the SWA534 flight status page for this flight to view local times or setup timezone preferences in your user account.

Time Position Orientation Groundspeed Altitude Reporting Facility
EDT Latitude Longitude Course Direction KTS MPH feet Rate Location/Type
07:06PM 37.7667 -122.3000 310° West 212 244 3,100  Level Northern Cal TRACON
07:08PM 37.8328 -122.4053 309° West 240 276 7,000 2,580 Climbing Oakland Center
07:09PM 37.9175 -122.4342 345° North 289 333 10,400 2,700 Climbing Oakland Center
07:10PM 38.0081 -122.4381 358° North 327 376 12,600 2,400 Climbing Oakland Center
07:11PM 38.1044 -122.4436 357° North 348 400 15,400 2,340 Climbing Oakland Center
07:12PM 38.2042 -122.4481 358° North 360 414 17,500 2,160 Climbing Oakland Center
07:13PM 38.3089 -122.4531 358° North 376 433 19,900 2,340 Climbing Oakland Center
07:14PM 38.4394 -122.4592 358° North 391 450 22,400 1,980 Climbing Oakland Center
07:15PM 38.5536 -122.4639 358° North 408 470 24,000 1,740 Climbing Oakland Center
07:16PM 38.6717 -122.4700 358° North 423 487 26,000 1,620 Climbing Oakland Center
07:17PM 38.7831 -122.4750 358° North 424 488 27,400 1,380 Climbing Oakland Center
07:18PM 38.9058 -122.4822 357° North 434 499 28,900 1,260 Climbing Oakland Center
07:20PM 39.0578 -122.4903 358° North 448 516 30,000 480 Climbing Oakland Center
07:21PM 39.1878 -122.4956 358° North 460 529 30,000  Level Oakland Center
07:22PM 39.3203 -122.5025 358° North 471 542 30,000 180 Level Oakland Center
07:23PM 39.4508 -122.5075 358° North 470 541 30,400 1,320 Climbing Oakland Center
07:24PM 39.5747 -122.5139 358° North 453 521 32,800 1,680 Climbing Oakland Center
07:25PM 39.6972 -122.5208 358° North 443 510 33,900 1,080 Climbing Oakland Center
07:26PM 39.8222 -122.5281 357° North 446 513 35,100 1,020 Climbing Oakland Center
07:27PM 39.9719 -122.5353 358° North 445 512 36,000 420 Climbing Oakland Center
07:28PM 40.1017 -122.5439 357° North 454 522 36,000  Level Oakland Center
07:29PM 40.2328 -122.5481 359° North 460 529 36,000  Level Oakland Center
07:30PM 40.3614 -122.5544 358° North 458 527 36,000  Level Oakland Center
07:31PM 40.4881 -122.5600 358° North 454 522 36,000  Level Oakland Center
07:32PM 40.6161 -122.5667 358° North 458 527 36,000  Level Oakland Center
07:33PM 40.7439 -122.5733 358° North 460 529 36,000  Level Oakland Center
07:34PM 40.8733 -122.5792 358° North 466 536 36,000  Level Oakland Center
07:35PM 41.0019 -122.5867 357° North 463 533 36,000  Level Oakland Center
07:36PM 41.1297 -122.5936 358° North 460 529 36,000  Level Oakland Center
07:37PM 41.2822 -122.6008 358° North 457 526 36,000  Level Oakland Center
07:38PM 41.3958 -122.6058 358° North 457 526 36,000  Level Oakland Center
07:39PM 41.4744 -122.6108 357° North 459 528 36,000  Level Seattle Center
07:40PM 41.6036 -122.6172 358° North 462 532 36,000  Level Seattle Center
07:41PM 41.7328 -122.6228 358° North 463 533 36,000  Level Seattle Center
07:42PM 41.8614 -122.6289 358° North 462 532 36,000  Level Seattle Center
07:43PM 41.9903 -122.6353 358° North 462 532 36,000  Level Seattle Center
07:44PM 42.1208 -122.6425 358° North 465 535 36,000  Level Seattle Center
07:45PM 42.2481 -122.6472 358° North 458 527 36,000  Level Seattle Center
07:46PM 42.3772 -122.6533 358° North 461 531 36,000  Level Seattle Center
07:47PM 42.5039 -122.6614 357° North 455 524 36,000  Level Seattle Center
07:48PM 42.6581 -122.6686 358° North 461 531 36,000  Level Seattle Center
07:49PM 42.7758 -122.6750 358° North 457 526 36,000  Level Seattle Center
07:50PM 42.9011 -122.6822 358° North 451 519 36,000  Level Seattle Center
07:51PM 43.0264 -122.6886 358° North 451 519 36,000  Level Seattle Center
07:52PM 43.1500 -122.6956 358° North 447 514 36,000 -120 Level Seattle Center
07:53PM 43.2728 -122.7031 357° North 444 511 35,800 -660 Descending Seattle Center
07:54PM 43.4222 -122.7114 358° North 448 516 34,700 -1,020 Descending Seattle Center
07:55PM 43.5494 -122.7189 358° North 457 526 33,800 -840 Descending Seattle Center
07:56PM 43.6756 -122.7261 358° North 454 522 33,000 -420 Descending Seattle Center
07:57PM 43.8042 -122.7319 358° North 461 531 33,000  Level Seattle Center
07:58PM 43.9303 -122.7400 357° North 457 526 33,000 -960 Level Seattle Center
07:59PM 44.0586 -122.7478 358° North 462 532 31,100 -2,400 Descending Seattle Center
08:00PM 44.1886 -122.7494 359° North 471 542 28,200 -2,700 Descending Seattle Center
08:01PM 44.3150 -122.7361 North 461 531 25,600 -2,760 Descending Seattle Center
08:02PM 44.4581 -122.7222 North 447 514 22,600 -2,640 Descending Seattle Center
08:03PM 44.5758 -122.7108 North 432 497 20,300 -2,340 Descending Seattle Center
08:04PM 44.6889 -122.6992 North 416 479 17,900 -2,400 Descending Seattle Center
08:05PM 44.8006 -122.6897 North 403 464 15,500 -2,400 Descending Seattle Center
08:06PM 44.9081 -122.6781 North 393 452 13,100 -1,860 Descending Seattle Center
08:07PM 45.0111 -122.6681 North 374 430 11,800 -1,500 Descending Seattle Center
08:08PM 45.1019 -122.6461 10° North 346 398 10,100 -1,380 Descending Seattle Center
08:09PM 45.1817 -122.5967 24° Northeast 319 367 9,000 -1,380 Descending Seattle Center
08:10PM 45.2742 -122.5394 24° Northeast 304 350 7,300 -1,560 Descending Seattle Center
08:11PM 45.3506 -122.5083 16° North 293 337 5,900 -1,380 Descending Seattle Center
08:12PM 45.4239 -122.4683 21° North 288 331 4,500 -1,140 Descending Seattle Center
08:13PM 45.4931 -122.4258 23° Northeast 277 319 3,700 -600 Descending Seattle Center
08:14PM 45.5322 -122.4522 335° Northwest 220 253 3,300 -1,140 Descending Seattle Center
08:15PM 45.5472 -122.5031 293° West 156 180 1,400 -1,380 Descending Seattle Center
08:16PM 45.5675 -122.5539 300° West 147 169 500 -900 Descending Seattle Center
08:18PM 45.5833 -122.5833 North  Level FlightAware Approximate